Location: Coubert
(48.6719°N, 2.6973°E)
Time: 13:16:01
(UTC+00:00)

Daily predictions for brighter satellites

Satellite Brightness Start Highest point End
(mag) Time Altitude Azimuth Time Altitude Azimuth Time Altitude Azimuth
Meteor 2-3 Rocket 3.8 19:42:54 10° N 19:48:29 64° ENE 19:54:05 10° SSE
CZ-4C R/B 2.4 19:46:10 10° S 19:49:47 31° ESE 19:54:12 10° NE
Cosmos 2084 4.0 19:47:25 10° SW 19:51:31 60° NW 19:55:37 10° NE
Cosmos 292 Rocket 3.8 19:46:52 10° NNW 19:51:39 69° ENE 19:56:22 10° SSE
CSL-04 Rocket 4.3 19:47:14 10° S 19:52:40 60° WSW 19:58:05 10° NNW
Cosmos 1833 Rocket 2.7 19:47:22 10° SSW 19:52:58 80° ESE 19:58:36 10° NNE
CZ-4B DEB 4.3 19:47:38 10° SSE 19:53:09 89° WSW 19:58:44 10° NNW
ATLAS 2AS CENTAUR R/B 2.9 19:47:15 10° SW 19:54:13 80° NW 20:01:06 10° NE
CZ-4B R/B 3.3 19:50:00 10° SSE 19:55:38 72° ENE 20:01:15 10° NNW
Okean-O 3.4 19:53:39 10° SE 19:57:39 37° ENE 20:01:41 10° N
Cosmos 1892 Rocket 4.4 19:53:50 10° N 19:57:45 32° ENE 20:01:37 10° SE
USA 305 3.6 19:57:04 10° WNW 20:00:58 43° NNE 20:04:39 10° E
Cosmos 1455 Rocket 4.0 19:57:52 10° SSE 20:01:43 30° E 20:05:35 10° NNE
Gbstr 26 Del rocket 3.3 19:56:31 10° WNW 20:01:56 83° NNE 20:06:19 10° ESE
SL-4 R/B 2.7 19:58:59 10° WNW 20:02:34 40° SSW 20:06:14 10° SE
Spot 2 Rocket 3.9 19:58:31 10° SE 20:03:19 49° ENE 20:08:10 10° N
MetOp-B 4.2 19:58:13 10° SSE 20:03:35 85° ENE 20:08:58 10° NNW
Cosmos 2016 Rocket 4.5 20:01:00 10° SSE 20:06:48 41° E 20:12:33 10° NNE
Cosmos 2173 Rocket 4.0 20:02:34 10° S 20:08:38 69° E 20:14:49 10° NNE
Okean 1 Rocket 3.0 20:04:22 10° S 20:08:42 68° E 20:13:07 10° NNE
ADEOS 3.6 20:04:09 10° SSE 20:09:22 84° ENE 20:14:37 10° NNW
Helios 1A Rocket 2.5 20:12:16 10° N 20:15:26 73° WNW 20:18:34 10° SSW
Meteor 1-27 4.5 20:17:01 10° SSE 20:22:27 49° E 20:27:49 10° NNE
ERS-1 Rocket 3.6 20:19:21 10° S 20:24:16 57° W 20:29:13 10° NNW
SKYMED 3 4.3 20:21:08 10° NNE 20:25:05 89° ESE 20:29:03 10° SSW
SJ 16-02 4.2 20:25:54 10° WNW 20:27:13 11° W 20:28:32 10° WSW
ATLAS 3B R/B 3.2 20:20:21 10° NW 20:28:05 69° SW 20:34:58 12° SSE
Cosmos 2369 4.3 20:22:58 10° NNW 20:28:29 46° NE 20:33:06 14° SE
Cosmos 2322 Rocket 4.2 20:24:58 10° N 20:28:39 17° NE 20:32:19 10° ENE
DEBRIS 2.9 20:28:11 10° WSW 20:30:51 67° SSE 20:37:53 10° ENE
Cosmos 1452 Rocket 3.5 20:26:13 10° S 20:31:21 62° ESE 20:36:31 10° NNE
Cosmos 2082 Rocket 2.8 20:26:13 10° S 20:31:22 36° ESE 20:36:31 10° NE
Cosmos 1741 Rocket 4.1 20:26:31 10° NNW 20:31:51 86° WSW 20:36:43 12° SSE
SL-08 R/B 3.3 20:28:36 10° NNE 20:33:29 85° ESE 20:38:16 10° SSW
Sich 1 Rocket 3.8 20:31:58 10° SSW 20:36:18 73° W 20:40:41 10° N
Cosmos 968 Rocket 4.3 20:32:14 10° NNW 20:37:16 48° WSW 20:42:16 10° S
Cosmos 1331 Rocket 4.1 20:32:59 10° SSW 20:38:14 85° WNW 20:43:30 10° NNE
Cosmos 1802 Rocket 3.9 20:32:05 10° S 20:38:17 80° E 20:44:27 10° N
YAOGAN 11 4.1 20:35:30 10° NNE 20:39:54 67° ESE 20:44:19 10° S
CZ-4B R/B 3.9 20:36:55 16° SE 20:40:19 43° ENE 20:44:51 10° N
Cosmos 1302 Rocket 4.1 20:42:38 10° S 20:47:38 53° ESE 20:52:40 10° NNE
MOS 1-B 4.5 20:44:43 11° S 20:50:17 77° WSW 20:56:08 10° NNW
Cosmos 1697 Rocket 4.0 20:45:15 10° NW 20:50:19 35° WSW 20:55:21 10° S
CZ-2C R/B 3.4 20:49:47 21° E 20:50:34 24° ENE 20:52:54 10° NNE
Cosmos 2151 4.1 20:48:18 10° NNE 20:51:51 27° ENE 20:53:43 19° ESE
Meteor 2-12 Rocket 4.4 20:46:27 10° N 20:52:34 80° E 20:57:39 16° SSE
Terra 3.3 20:48:21 10° SSW 20:52:36 34° W 20:56:53 10° NNW
NOSS 3-3 (A) 4.1 20:49:03 10° S 20:53:42 37° ESE 20:59:08 10° NE
SL-16 R/B 3.2 20:51:26 10° NNW 20:56:38 35° NE 21:00:34 16° ESE
COSMOS 2406 4.1 20:54:42 19° SE 20:57:31 29° ESE 21:02:21 10° NE
Cosmos 1743 3.0 20:58:22 10° NNW 21:01:16 45° W 21:03:16 17° SSW
Cosmos 2228 2.8 20:58:22 14° S 21:01:51 79° E 21:05:58 10° NNE
USA 186 2.5 21:00:42 18° SSW 21:02:16 37° W 21:04:50 10° NNW
USA 306 3.5 20:59:36 10° SSW 21:00:59 19° SSW 21:00:59 19° SSW
Cosmos 1782 2.5 21:00:48 13° SSW 21:03:50 78° W 21:07:23 10° N
SPOT 3 Rocket 3.5 21:02:10 20° SSE 21:05:49 84° ENE 21:11:00 10° NNW
Cosmos 44 Rocket 3.7 21:05:15 10° SW 21:10:18 70° NW 21:15:31 10° NE
Cosmos 2333 Rocket 3.1 21:06:44 10° NNW 21:12:05 40° NE 21:15:41 19° ESE
Cosmos 1626 Rocket 3.6 21:08:15 10° N 21:12:34 61° ENE 21:14:41 29° SSE
Cosmos 1607 3.8 21:08:52 10° SSW 21:14:59 77° SE 21:21:16 10° NE
CZ-4B R/B 2.4 21:13:30 30° S 21:15:01 75° WSW 21:18:25 10° NNW
Cosmos 1980 Rocket 3.0 21:13:38 10° NW 21:19:03 46° WSW 21:23:05 17° S
Okean O Rocket 2.9 21:15:58 11° SSW 21:19:39 34° W 21:23:36 10° NNW
ISS -3.9 21:17:17 10° WSW 21:20:37 80° SSE 21:23:58 10° ENE
Cosmos 2233 Rocket 4.1 21:14:56 10° SSW 21:21:09 79° W 21:27:22 10° N
Helios 1B rocket 4.2 21:21:08 13° E 21:22:04 14° ENE 21:24:03 10° NNE
NOSS 3-3 (C) 3.8 21:17:31 12° SSW 21:22:08 49° ESE 21:28:00 10° NE
USA 305 2.4 21:22:29 10° WNW 21:26:34 72° SW 21:27:30 46° SE
Cosmos 1933 3.6 21:27:23 38° SE 21:28:10 44° E 21:31:49 10° NNE
IRS-1C Rocket 4.1 21:25:22 25° S 21:28:35 80° WSW 21:33:53 10° NNW
Geosat 4.3 21:26:08 10° NE 21:30:55 43° ESE 21:32:49 30° SSE
Tsikada Rocket 4.4 21:25:45 10° NNW 21:31:49 61° W 21:36:32 17° SSW
Okean-O 4.4 21:30:19 10° SSW 21:34:00 26° W 21:37:43 10° NW
Ariane Rocket 3.1 21:33:20 26° S 21:36:13 69° WSW 21:41:17 10° NNW
Cosmos 2098 Rocket 3.9 21:34:55 32° SE 21:36:28 40° E 21:40:46 10° NNE
NOSS 3-4 (A) 4.3 21:30:12 10° NW 21:36:31 51° NE 21:42:12 17° ESE
NOSS 3-4 (C) 4.4 21:30:48 10° NW 21:37:09 51° NE 21:42:51 17° ESE
CZ-4C R/B 3.0 21:33:27 10° WSW 21:37:40 45° NW 21:43:06 10° NE
Nadezhda 4 Rocket 4.4 21:33:15 10° N 21:39:10 48° ENE 21:42:00 29° SE
Cosmos 2360 Rocket 3.0 21:40:03 10° NNW 21:45:26 41° NE 21:48:24 24° ESE
Cosmos 2084 Rocket 3.7 21:41:50 10° NW 21:45:56 54° SW 21:47:04 40° S
Gbstr 26 Del rocket 4.0 21:43:41 10° WNW 21:47:52 30° SW 21:48:34 28° SSW
Cosmos 1461 4.2 21:50:45 22° ENE 21:50:45 22° ENE 21:52:30 10° ENE
Cosmos 1437 Rocket 2.3 21:48:45 60° S 21:49:18 79° E 21:52:53 10° NNE
Cosmos 1544 Rocket 3.6 21:49:37 30° SSW 21:51:43 74° W 21:56:04 10° N
USA 234 3.8 21:50:46 10° ENE 21:56:35 33° SE 21:57:36 32° SSE
Cosmos 2219 Rocket 3.3 21:57:01 10° NNW 22:02:15 36° NE 22:05:14 22° ESE
DNEPR-1 R/B 4.5 21:59:54 10° NW 22:05:16 67° NE 22:08:22 31° ESE
Cosmos 1805 2.7 22:02:05 10° N 22:05:16 78° NE 22:05:16 78° NE
BREEZE-M DEB (TANK) 3.4 22:03:52 10° W 22:04:53 20° W 22:04:53 20° W
Cosmos 1758 Rocket 4.5 22:02:56 10° NNW 22:07:04 41° W 22:08:49 28° SW
Cosmos 1777 Rocket 4.1 22:04:13 10° NNW 22:09:26 64° ENE 22:11:10 40° SE
Cosmos 1992 Rocket 4.5 22:05:20 13° SW 22:09:53 59° WNW 22:15:03 10° NNE
Cosmos 909 Rocket 4.3 22:04:13 10° SW 22:10:30 70° NW 22:17:02 10° NE
Cosmos 1503 Rocket 4.4 22:05:28 10° NNW 22:10:34 51° ENE 22:12:20 36° ESE
Cosmos 2322 Rocket 2.3 22:08:07 10° NNW 22:13:47 67° ENE 22:15:56 38° SE
Cosmos 2082 Rocket 3.3 22:09:53 10° SW 22:15:20 44° NW 22:20:49 10° NNE
Cosmos 1536 4.3 22:12:53 10° NNE 22:15:45 21° ENE 22:15:51 21° ENE
Cosmos 1464 Rocket 3.9 22:18:24 35° S 22:21:12 89° E 22:27:25 10° N
CZ-2C R/B 4.5 22:21:24 15° W 22:21:24 15° W 22:23:07 10° NW
Cosmos 1486 Rocket 3.9 22:17:14 10° NNW 22:22:32 90° ENE 22:24:02 48° SSE
Cosmos 1825 Rocket 3.4 22:18:38 10° N 22:22:59 86° ENE 22:23:40 63° SSE
Cosmos 1375 Rocket 4.4 22:18:44 23° SSW 22:23:03 79° SE 22:29:40 10° NE
Cosmos 1953 Rocket 3.8 22:21:06 10° N 22:25:25 54° ENE 22:25:57 50° ESE
Meteor 1-5 Rocket 4.3 22:20:28 10° NNW 22:26:09 76° W 22:28:14 41° S
ALOS 2 3.6 22:27:20 31° E 22:28:13 34° ENE 22:32:11 10° N
Cosmos 2058 Rocket 4.0 22:28:26 33° E 22:28:26 33° E 22:32:18 10° NNE
ARIANE 5 R/B 3.3 22:27:36 37° E 22:28:26 41° ENE 22:32:36 10° N
Cosmos 2151 4.3 22:25:01 10° NNW 22:28:36 29° W 22:29:47 25° WSW
Spot 4 4.5 22:28:39 37° ESE 22:29:47 44° ENE 22:34:20 10° N
Cosmos 220 Rocket 3.7 22:29:24 69° SSW 22:29:51 86° WNW 22:33:58 10° NNE
Cosmos 1602 Rocket 4.5 22:28:28 10° NNW 22:32:28 38° W 22:33:31 33° SW
Cosmos 2278 3.8 22:28:21 10° NNW 22:34:02 67° WSW 22:35:41 45° S
CSL-04 DEB 4.1 22:34:56 76° NNE 22:34:56 76° NNE 22:38:22 10° NNW
SL-16 R/B 2.7 22:35:28 10° NW 22:40:52 47° WSW 22:42:24 38° SSW
COSMOS 2406 3.8 22:36:39 14° SW 22:41:29 55° WNW 22:47:08 10° NNE
Cosmos 1092 Rocket 4.0 22:37:29 10° N 22:43:39 70° E 22:45:38 44° SSE
Helios 1A 3.1 22:39:58 10° N 22:43:50 59° WNW 22:44:23 53° WSW
CZ-2C R/B 3.6 22:45:30 10° NNE 22:49:55 63° ESE 22:50:07 62° ESE
Cosmos-2242 2.9 22:51:19 65° E 22:51:19 65° E 22:55:20 10° NNE
Aureole 1 Rocket 4.2 22:46:09 10° NNW 22:51:23 53° ENE 22:53:46 35° ESE
Okean 1 3.6 22:53:46 52° WNW 22:53:46 52° WNW 22:57:10 10° N
Helios 1B rocket 2.7 22:55:06 46° WNW 22:55:06 46° WNW 22:58:06 10° NNW
Cosmos 2034 Rocket 4.1 22:53:27 39° SSW 22:56:00 78° W 23:02:24 10° N
Cosmos 2333 Rocket 2.9 22:51:06 10° NW 22:56:24 41° WSW 22:57:41 36° SW
Cosmos 1271 Rocket 4.4 22:58:25 20° ENE 22:58:25 20° ENE 23:00:06 10° NE
ISS -2.8 22:54:19 10° W 22:57:24 48° NNW 22:57:24 48° NNW
CZ-2C R/B 3.9 22:56:33 23° E 22:58:37 30° ENE 23:03:09 10° N
Cosmos 1707 4.0 23:02:42 27° NNE 23:02:42 27° NNE 23:04:10 10° NNE
Cosmos 1975 4.2 22:59:05 10° NNE 23:02:05 26° ENE 23:02:05 26° ENE
Cosmos 1833 4.1 23:04:37 54° S 23:05:51 74° ESE 23:11:30 10° NNE
Meteor 2-2 Rocket 4.1 23:09:39 54° S 23:11:00 85° E 23:16:46 10° NNE
Cosmos 468 Rocket 4.3 23:11:08 49° ESE 23:11:32 50° ESE 23:16:37 10° NNE
Cosmos 2221 3.5 23:14:13 34° E 23:14:13 34° E 23:17:42 10° NNE
Cosmos 2297 Rocket 4.1 23:18:41 15° ESE 23:19:00 15° E 23:22:09 10° ENE
Cosmos 2322 4.3 23:13:42 10° NNW 23:19:16 50° NE 23:21:36 32° ESE
Cosmos 540 Rocket 3.4 23:18:15 58° SSW 23:19:16 83° WNW 23:24:28 10° NNE
Cosmos 1634 Rocket 3.9 23:22:44 48° SSW 23:24:35 82° W 23:30:50 10° N
Cosmos 1461 4.1 23:24:21 27° WNW 23:25:27 33° NW 23:28:50 10° NNE
Cosmos 2279 Rocket 4.0 23:25:15 50° SSE 23:26:57 76° E 23:33:13 10° NNE
NOSS 3-4 (A) 4.1 23:21:00 10° NW 23:27:34 51° WSW 23:29:36 41° SSW
NOSS 3-4 (C) 4.1 23:21:36 10° NW 23:28:13 52° WSW 23:30:15 42° SSW
Cosmos 1898 Rocket 3.9 23:24:07 10° NNW 23:29:14 56° ENE 23:30:35 43° ESE
Cosmos 2360 Rocket 2.9 23:24:10 10° NW 23:29:23 38° WSW 23:30:08 37° SW
RESURS DK-1 3.4 23:27:50 10° NNW 23:31:32 36° NE 23:32:11 34° ENE
USA 290 4.0 23:35:47 28° NW 23:35:47 28° NW 23:38:11 10° N
NOSS 0 Rocket 4.5 23:33:52 10° NNW 23:39:56 53° NE 23:43:09 27° ESE
USA 234 3.2 23:33:30 10° NE 23:40:05 88° NNW 23:44:54 20° WSW
Meteor 1-11 Rocket 4.0 23:36:38 10° N 23:42:18 59° ENE 23:43:52 44° SE
Cosmos 1763 Rocket 4.2 23:43:38 33° WSW 23:45:32 48° WNW 23:50:40 10° NNE
Cosmos 2219 Rocket 2.6 23:40:56 10° NW 23:46:18 45° WSW 23:46:54 43° SW
ARGOS Delta rocket 4.2 23:41:30 10° N 23:46:28 64° WNW 23:47:34 50° SW
Cosmos 1812 Rocket 3.7 23:48:46 61° E 23:48:46 61° E 23:53:07 10° NNE
BREEZE-M DEB (TANK) 4.0 23:35:45 10° WSW 23:50:32 90° NNE 23:54:14 10° ENE
Cosmos 1536 4.1 23:47:46 10° NNW 23:50:22 28° WNW 23:50:22 28° WNW
Cosmos 1842 4.3 23:55:54 32° NNW 23:55:54 32° NNW 23:58:00 10° N
Intercosmos 24 4.5 23:51:41 10° N 23:55:51 46° ENE 23:55:56 46° ENE
Cosmos 1470 3.8 23:53:13 10° NNW 23:55:21 34° NW 23:55:21 34° NW
